QPF
0.06 0.07 0.07 0.07 0.07 0.06 0.05 0.04 0.04 0.04 0.03 0.02 0.02 0.02 0.02 0.02 0.03 0.03 0.03 0.03 0.03 0.03 0.04 0.04 0.04 0.04 0.03 0.05 0.08 0.10 0.11 0.11 0.11 0.10 0.08 0.07 0.06 0.04
0.04 0.04 0.05 0.05 0.05 0.04 0.04 0.04 0.03 0.03 0.03 0.01 0.01 0.01 0.02 0.02 0.03 0.03 0.03 0.05 0.05 0.04 0.04 0.04 0.05 0.05 0.05 0.05 0.07 0.11 0.12 0.11 0.10 0.09 0.08 0.07 0.06 0.05
0.04 0.04 0.05 0.05 0.04 0.04 0.03 0.03 0.03 0.03 0.03 0.02 0.01 0.01 0.01 0.02 0.02 0.02 0.03 0.04 0.05 0.06 0.06 0.05 0.04 0.04 0.04 0.07 0.07 0.08 0.10 0.10 0.10 0.09 0.08 0.07 0.06 0.05
0.05 0.05 0.05 0.05 0.04 0.04 0.04 0.04 0.03 0.02 0.02 0.02 0.02 0.02 0.02 0.03 0.03 0.03 0.02 0.03 0.03 0.05 0.06 0.05 0.04 0.04 0.04 0.06 0.08 0.07 0.07 0.07 0.07 0.07 0.07 0.08 0.07 0.07
0.04 0.05 0.05 0.05 0.05 0.05 0.05 0.05 0.04 0.03 0.03 0.02 0.02 0.02 0.03 0.03 0.03 0.04 0.04 0.03 0.03 0.03 0.04 0.05 0.05 0.04 0.04 0.05 0.06 0.07 0.07 0.07 0.07 0.07 0.07 0.06 0.06 0.06
0.04 0.05 0.05 0.05 0.06 0.06 0.06 0.05 0.05 0.04 0.04 0.04 0.03 0.03 0.04 0.03 0.03 0.05 0.05 0.04 0.03 0.03 0.02 0.03 0.06 0.06 0.05 0.05 0.05 0.05 0.06 0.06 0.07 0.08 0.07 0.06 0.05 0.05
0.03 0.03 0.03 0.04 0.05 0.05 0.06 0.06 0.06 0.06 0.05 0.05 0.05 0.05 0.05 0.05 0.05 0.04 0.05 0.04 0.03 0.03 0.02 0.02 0.04 0.05 0.06 0.06 0.05 0.05 0.05 0.06 0.07 0.07 0.07 0.07 0.06 0.05
0.02 0.03 0.03 0.03 0.04 0.04 0.05 0.06 0.07 0.06 0.06 0.06 0.06 0.06 0.06 0.06 0.06 0.05 0.05 0.04 0.03 0.03 0.02 0.02 0.03 0.05 0.06 0.05 0.05 0.05 0.05 0.05 0.05 0.05 0.06 0.06 0.06 0.05
0.02 0.03 0.03 0.03 0.04 0.04 0.05 0.06 0.07 0.07 0.07 0.07 0.07 0.06 0.06 0.06 0.06 0.06 0.05 0.04 0.04 0.04 0.03 0.03 0.03 0.04 0.05 0.06 0.06 0.06 0.05 0.05 0.04 0.04 0.04 0.04 0.04 0.04
0.02 0.03 0.03 0.03 0.04 0.05 0.05 0.05 0.06 0.06 0.06 0.06 0.06 0.06 0.05 0.06 0.06 0.06 0.05 0.04 0.04 0.04 0.04 0.04 0.03 0.03 0.04 0.05 0.05 0.05 0.05 0.04 0.04 0.03 0.03 0.02 0.03 0.03
0.01 0.02 0.03 0.03 0.04 0.05 0.05 0.05 0.04 0.04 0.05 0.06 0.07 0.07 0.06 0.07 0.07 0.06 0.05 0.05 0.05 0.04 0.03 0.04 0.04 0.03 0.03 0.04 0.04 0.04 0.04 0.03 0.03 0.03 0.03 0.03 0.02 0.02
0.01 0.01 0.02 0.02 0.03 0.03 0.03 0.04 0.04 0.03 0.04 0.04 0.05 0.06 0.05 0.05 0.07 0.07 0.06 0.06 0.05 0.04 0.03 0.04 0.04 0.04 0.04 0.03 0.03 0.03 0.02 0.02 0.02 0.03 0.03 0.04 0.04 0.04
0.02 0.01 0.01 0.02 0.02 0.03 0.03 0.04 0.04 0.03 0.03 0.04 0.04 0.04 0.04 0.04 0.05 0.06 0.06 0.04 0.04 0.03 0.03 0.03 0.04 0.03 0.03 0.03 0.03 0.03 0.02 0.02 0.03 0.03 0.04 0.05 0.05 0.05
0.03 0.03 0.02 0.03 0.03 0.04 0.03 0.04 0.04 0.04 0.03 0.04 0.04 0.04 0.04 0.04 0.04 0.05 0.05 0.04 0.03 0.03 0.02 0.03 0.04 0.04 0.04 0.03 0.03 0.03 0.03 0.04 0.04 0.03 0.03 0.03 0.03 0.05
0.03 0.04 0.04 0.04 0.04 0.03 0.04 0.03 0.03 0.03 0.03 0.03 0.03 0.03 0.03 0.04 0.04 0.04 0.04 0.04 0.04 0.03 0.03 0.03 0.04 0.04 0.04 0.04 0.04 0.03 0.03 0.03 0.03 0.03 0.03 0.02 0.03 0.05
0.04 0.04 0.04 0.04 0.04 0.04 0.03 0.03 0.03 0.03 0.03 0.03 0.03 0.03 0.03 0.03 0.03 0.03 0.03 0.03 0.03 0.03 0.02 0.02 0.02 0.03 0.03 0.03 0.02 0.02 0.02 0.03 0.03 0.04 0.04 0.04 0.04 0.04
0.03 0.03 0.03 0.03 0.02 0.03 0.03 0.03 0.03 0.03 0.03 0.03 0.03 0.03 0.03 0.02 0.03 0.03 0.03 0.03 0.03 0.02 0.02 0.02 0.02 0.02 0.03 0.03 0.03 0.03 0.03 0.03 0.04 0.04 0.04 0.04 0.04 0.04
0.03 0.03 0.03 0.02 0.02 0.02 0.02 0.03 0.02 0.02 0.02 0.03 0.03 0.02 0.02 0.02 0.02 0.02 0.02 0.02 0.02 0.02 0.01 0.01 0.01 0.02 0.02 0.03 0.03 0.03 0.03 0.03 0.04 0.04 0.04 0.04 0.04 0.04
0.03 0.03 0.03 0.02 0.02 0.02 0.02 0.02 0.02 0.01 0.02 0.02 0.02 0.02 0.02 0.02 0.02 0.02 0.02 0.02 0.02 0.02 0.02 0.02 0.02 0.02 0.02 0.02 0.02 0.02 0.02 0.02 0.03 0.03 0.03 0.03 0.03 0.04
0.03 0.03 0.03 0.03 0.02 0.02 0.02 0.01 0.01 0.01 0.01 0.02 0.02 0.02 0.02 0.02 0.02 0.02 0.02 0.02 0.02 0.02 0.02 0.02 0.02 0.02 0.02 0.01 0.01 0.01 0.02 0.02 0.02 0.02 0.02 0.02 0.03 0.03
0.04 0.04 0.03 0.03 0.02 0.02 0.02 0.01 0.01 0.02 0.02 0.02 0.01 0.01 0.01 0.01 0.01 0.01 0.01 0.02 0.02 0.02 0.02 0.01 0.01 0.02 0.02 0.02 0.02 0.01 0.01 0.02 0.02 0.02 0.02 0.02 0.03 0.03
0.04 0.04 0.04 0.04 0.03 0.03 0.02 0.02 0.01 0.01 0.01 0.02 0.01 0.01 0.01 0.01 0.01 0.01 0.01 0.02 0.02 0.02 0.01 0.01 0.01 0.01 0.01 0.01 0.01 0.01 0.01 0.01 0.01 0.01 0.01 0.02 0.03 0.03
0.03 0.03 0.03 0.03 0.03 0.03 0.03 0.02 0.02 0.02 0.01 0.01 0.01 0.01 0.01 0.01 0.01 0.01 0.01 0.02 0.02 0.02 0.01 0.01 0.01 0.01 0.01 0.01 0.01 0.01 0.02 0.02 0.02 0.02 0.02 0.02 0.01 0.02
MSLP
1017.79 1017.67 1017.53 1017.35 1017.17 1016.98 1016.81 1016.66 1016.55 1016.48 1016.46 1016.48 1016.56 1016.67 1016.79 1016.93 1017.04 1017.11 1017.11 1017.03 1016.85 1016.57 1016.19 1015.75 1015.26 1014.76 1014.31 1013.94 1013.70 1013.64 1013.77 1014.12 1014.68 1015.43 1016.33 1017.32 1018.36 1019.37
1017.69 1017.60 1017.48 1017.34 1017.18 1017.02 1016.86 1016.72 1016.62 1016.55 1016.51 1016.53 1016.58 1016.67 1016.78 1016.89 1016.98 1017.03 1017.02 1016.93 1016.74 1016.45 1016.07 1015.61 1015.11 1014.59 1014.10 1013.70 1013.43 1013.35 1013.47 1013.82 1014.40 1015.17 1016.11 1017.15 1018.24 1019.31
1017.46 1017.40 1017.32 1017.21 1017.09 1016.96 1016.83 1016.72 1016.63 1016.57 1016.55 1016.56 1016.60 1016.67 1016.76 1016.85 1016.92 1016.96 1016.95 1016.87 1016.69 1016.42 1016.06 1015.63 1015.14 1014.63 1014.15 1013.76 1013.49 1013.41 1013.53 1013.88 1014.46 1015.24 1016.19 1017.25 1018.34 1019.42
1017.13 1017.11 1017.06 1016.99 1016.91 1016.81 1016.72 1016.64 1016.57 1016.53 1016.51 1016.53 1016.57 1016.64 1016.72 1016.81 1016.88 1016.93 1016.93 1016.88 1016.74 1016.52 1016.22 1015.84 1015.41 1014.95 1014.52 1014.16 1013.92 1013.85 1013.98 1014.33 1014.89 1015.65 1016.57 1017.60 1018.67 1019.72
1016.75 1016.76 1016.75 1016.71 1016.66 1016.59 1016.53 1016.47 1016.42 1016.39 1016.39 1016.42 1016.47 1016.55 1016.64 1016.74 1016.84 1016.92 1016.97 1016.97 1016.91 1016.77 1016.55 1016.27 1015.92 1015.56 1015.20 1014.91 1014.71 1014.66 1014.79 1015.12 1015.65 1016.36 1017.22 1018.19 1019.19 1020.18
1016.35 1016.39 1016.41 1016.40 1016.37 1016.32 1016.27 1016.22 1016.18 1016.17 1016.18 1016.22 1016.29 1016.39 1016.51 1016.64 1016.79 1016.93 1017.04 1017.13 1017.16 1017.13 1017.03 1016.86 1016.64 1016.38 1016.13 1015.91 1015.76 1015.74 1015.87 1016.18 1016.66 1017.30 1018.07 1018.95 1019.86 1020.76
1015.95 1016.03 1016.07 1016.08 1016.06 1016.02 1015.97 1015.93 1015.89 1015.88 1015.90 1015.95 1016.04 1016.16 1016.32 1016.50 1016.70 1016.91 1017.11 1017.29 1017.44 1017.53 1017.56 1017.54 1017.45 1017.32 1017.17 1017.04 1016.97 1016.98 1017.11 1017.38 1017.80 1018.36 1019.04 1019.80 1020.60 1021.40
1015.54 1015.65 1015.72 1015.75 1015.74 1015.71 1015.67 1015.63 1015.59 1015.58 1015.60 1015.66 1015.76 1015.91 1016.10 1016.32 1016.58 1016.86 1017.15 1017.43 1017.69 1017.91 1018.08 1018.19 1018.24 1018.24 1018.21 1018.18 1018.17 1018.22 1018.36 1018.60 1018.96 1019.44 1020.02 1020.67 1021.35 1022.05
1015.10 1015.23 1015.33 1015.39 1015.42 1015.41 1015.38 1015.35 1015.32 1015.32 1015.35 1015.41 1015.52 1015.68 1015.89 1016.15 1016.45 1016.79 1017.14 1017.51 1017.87 1018.19 1018.48 1018.72 1018.90 1019.02 1019.11 1019.17 1019.24 1019.34 1019.49 1019.72 1020.04 1020.44 1020.92 1021.47 1022.05 1022.65
1014.58 1014.74 1014.88 1014.99 1015.06 1015.10 1015.11 1015.11 1015.12 1015.14 1015.19 1015.27 1015.39 1015.55 1015.77 1016.04 1016.36 1016.72 1017.12 1017.54 1017.95 1018.36 1018.74 1019.07 1019.36 1019.59 1019.78 1019.94 1020.09 1020.24 1020.42 1020.65 1020.94 1021.29 1021.71 1022.17 1022.67 1023.17
1013.95 1014.15 1014.33 1014.50 1014.64 1014.76 1014.85 1014.93 1015.00 1015.07 1015.16 1015.27 1015.40 1015.58 1015.79 1016.06 1016.37 1016.73 1017.12 1017.55 1017.99 1018.43 1018.86 1019.26 1019.62 1019.93 1020.21 1020.45 1020.67 1020.88 1021.11 1021.36 1021.65 1021.97 1022.34 1022.74 1023.17 1023.61
1013.20 1013.42 1013.66 1013.90 1014.14 1014.36 1014.57 1014.76 1014.93 1015.10 1015.25 1015.41 1015.58 1015.77 1015.98 1016.23 1016.51 1016.84 1017.20 1017.60 1018.02 1018.46 1018.89 1019.31 1019.71 1020.09 1020.43 1020.74 1021.03 1021.30 1021.58 1021.86 1022.16 1022.48 1022.83 1023.19 1023.57 1023.96
1012.36 1012.58 1012.86 1013.18 1013.52 1013.88 1014.23 1014.56 1014.87 1015.16 1015.42 1015.66 1015.88 1016.10 1016.31 1016.55 1016.79 1017.07 1017.39 1017.73 1018.11 1018.50 1018.91 1019.33 1019.73 1020.13 1020.51 1020.87 1021.22 1021.55 1021.88 1022.20 1022.53 1022.86 1023.20 1023.54 1023.89 1024.23
1011.46 1011.66 1011.97 1012.36 1012.81 1013.29 1013.79 1014.29 1014.76 1015.19 1015.58 1015.93 1016.23 1016.49 1016.73 1016.96 1017.19 1017.42 1017.68 1017.97 1018.28 1018.63 1018.99 1019.37 1019.76 1020.16 1020.55 1020.94 1021.33 1021.70 1022.07 1022.43 1022.79 1023.14 1023.48 1023.81 1024.13 1024.43
1010.59 1010.75 1011.05 1011.48 1012.01 1012.62 1013.26 1013.91 1014.54 1015.12 1015.66 1016.12 1016.52 1016.86 1017.14 1017.39 1017.61 1017.83 1018.06 1018.30 1018.56 1018.85 1019.17 1019.51 1019.87 1020.25 1020.64 1021.04 1021.44 1021.84 1022.23 1022.62 1022.99 1023.35 1023.69 1024.01 1024.31 1024.58
1009.84 1009.92 1010.19 1010.63 1011.21 1011.90 1012.64 1013.42 1014.19 1014.91 1015.58 1016.16 1016.67 1017.09 1017.45 1017.75 1018.00 1018.23 1018.46 1018.68 1018.92 1019.18 1019.47 1019.77 1020.10 1020.45 1020.82 1021.21 1021.60 1022.00 1022.40 1022.79 1023.17 1023.53 1023.86 1024.16 1024.43 1024.67
1009.33 1009.32 1009.52 1009.93 1010.51 1011.22 1012.03 1012.87 1013.73 1014.56 1015.32 1016.02 1016.62 1017.14 1017.58 1017.95 1018.28 1018.56 1018.82 1019.07 1019.32 1019.58 1019.85 1020.14 1020.45 1020.77 1021.12 1021.47 1021.85 1022.23 1022.61 1022.98 1023.34 1023.68 1023.99 1024.27 1024.51 1024.71
1009.16 1009.05 1009.17 1009.50 1010.03 1010.72 1011.51 1012.37 1013.26 1014.13 1014.95 1015.71 1016.39 1017.00 1017.52 1017.99 1018.39 1018.75 1019.09 1019.40 1019.70 1019.99 1020.28 1020.58 1020.88 1021.19 1021.50 1021.83 1022.16 1022.50 1022.84 1023.18 1023.50 1023.80 1024.08 1024.32 1024.52 1024.68
1009.42 1009.21 1009.23 1009.47 1009.90 1010.51 1011.23 1012.04 1012.89 1013.74 1014.56 1015.34 1016.06 1016.72 1017.32 1017.87 1018.36 1018.82 1019.24 1019.64 1020.02 1020.37 1020.71 1021.03 1021.33 1021.63 1021.93 1022.22 1022.51 1022.80 1023.09 1023.37 1023.64 1023.90 1024.12 1024.32 1024.48 1024.60
1010.13 1009.84 1009.76 1009.89 1010.21 1010.70 1011.31 1012.00 1012.75 1013.52 1014.29 1015.03 1015.75 1016.42 1017.06 1017.67 1018.24 1018.79 1019.31 1019.79 1020.25 1020.68 1021.07 1021.43 1021.76 1022.06 1022.34 1022.60 1022.85 1023.09 1023.32 1023.55 1023.76 1023.96 1024.13 1024.28 1024.39 1024.47
1011.29 1010.95 1010.79 1010.81 1011.00 1011.34 1011.80 1012.35 1012.95 1013.59 1014.25 1014.91 1015.57 1016.21 1016.85 1017.49 1018.11 1018.72 1019.31 1019.88 1020.41 1020.91 1021.36 1021.76 1022.12 1022.43 1022.70 1022.94 1023.15 1023.34 1023.53 1023.70 1023.85 1023.99 1024.11 1024.21 1024.28 1024.31
1012.81 1012.44 1012.22 1012.15 1012.22 1012.42 1012.71 1013.08 1013.52 1014.00 1014.51 1015.05 1015.61 1016.19 1016.79 1017.40 1018.03 1018.67 1019.31 1019.93 1020.51 1021.06 1021.56 1022.00 1022.38 1022.70 1022.97 1023.19 1023.38 1023.54 1023.68 1023.80 1023.91 1024.00 1024.08 1024.13 1024.16 1024.15
1014.56 1014.20 1013.94 1013.80 1013.76 1013.82 1013.95 1014.16 1014.42 1014.73 1015.08 1015.47 1015.91 1016.39 1016.92 1017.48 1018.08 1018.71 1019.34 1019.97 1020.58 1021.16 1021.68 1022.14 1022.53 1022.86 1023.13 1023.35 1023.52 1023.66 1023.78 1023.87 1023.95 1024.00 1024.04 1024.06 1024.05 1024.01
Thickness
5543 5543 5543 5543 5543 5544 5544 5544 5544 5546 5547 5544 5542 5541 5539 5538 5538 5537 5537 5537 5536 5536 5536 5535 5534 5533 5532 5531 5531 5530 5530 5530 5529 5529 5528 5527 5526 5525
5533 5533 5534 5534 5533 5533 5533 5534 5534 5535 5536 5536 5533 5531 5529 5528 5527 5527 5527 5527 5527 5527 5526 5525 5524 5523 5522 5521 5520 5519 5520 5520 5519 5518 5517 5516 5515 5514
5524 5524 5525 5524 5524 5524 5524 5524 5524 5525 5525 5524 5522 5521 5520 5519 5518 5517 5517 5517 5518 5518 5517 5515 5514 5514 5512 5511 5510 5509 5509 5509 5508 5507 5506 5505 5503 5502
5515 5515 5515 5515 5515 5514 5514 5515 5515 5515 5515 5515 5513 5511 5511 5510 5509 5508 5507 5507 5508 5507 5506 5505 5505 5504 5503 5501 5500 5499 5498 5497 5496 5495 5495 5494 5493 5490
5506 5506 5506 5506 5506 5506 5506 5506 5506 5505 5505 5506 5505 5502 5500 5498 5498 5497 5496 5497 5497 5496 5496 5495 5494 5493 5492 5491 5489 5488 5487 5486 5485 5484 5482 5481 5480 5478
5496 5496 5497 5497 5498 5498 5497 5498 5497 5497 5496 5496 5495 5493 5491 5489 5487 5488 5487 5486 5486 5485 5485 5484 5483 5482 5481 5480 5479 5477 5476 5474 5473 5471 5470 5469 5467 5466
5486 5487 5488 5488 5489 5488 5489 5489 5488 5488 5488 5487 5486 5484 5482 5480 5479 5479 5478 5476 5475 5474 5474 5473 5472 5471 5470 5469 5467 5466 5464 5463 5461 5460 5458 5456 5455 5454
5477 5478 5478 5478 5478 5478 5478 5478 5478 5479 5479 5478 5478 5477 5476 5473 5471 5468 5467 5466 5466 5464 5462 5461 5460 5459 5458 5458 5456 5454 5452 5451 5449 5447 5446 5444 5443 5443
5467 5468 5468 5469 5468 5469 5469 5468 5467 5467 5468 5468 5469 5468 5466 5464 5461 5458 5457 5456 5457 5453 5450 5450 5448 5447 5446 5444 5443 5441 5440 5438 5436 5435 5434 5433 5431 5430
5456 5457 5458 5458 5458 5459 5459 5458 5458 5457 5457 5456 5457 5456 5454 5453 5450 5448 5447 5444 5442 5440 5438 5437 5437 5435 5433 5432 5430 5429 5427 5425 5424 5422 5421 5420 5418 5417
5445 5446 5447 5447 5447 5446 5447 5447 5447 5445 5444 5444 5443 5443 5441 5440 5438 5435 5433 5432 5432 5429 5426 5425 5424 5422 5420 5419 5417 5416 5414 5412 5411 5410 5409 5407 5406 5406
5433 5434 5435 5435 5435 5435 5436 5436 5435 5434 5433 5432 5431 5430 5429 5428 5426 5425 5424 5422 5420 5418 5416 5413 5411 5409 5409 5408 5406 5404 5402 5401 5400 5399 5398 5397 5395 5394
5421 5423 5424 5424 5424 5424 5424 5424 5424 5422 5421 5420 5419 5418 5417 5415 5414 5412 5411 5411 5410 5409 5406 5402 5400 5398 5397 5397 5395 5393 5391 5390 5389 5389 5387 5386 5384 5383
5410 5412 5412 5412 5412 5412 5412 5412 5411 5410 5409 5408 5407 5406 5405 5403 5401 5400 5398 5397 5397 5396 5394 5391 5390 5388 5387 5386 5386 5383 5381 5379 5378 5378 5376 5375 5374 5373
5399 5400 5400 5401 5401 5401 5401 5400 5400 5399 5398 5397 5396 5394 5392 5391 5389 5388 5387 5385 5384 5382 5381 5380 5379 5378 5376 5375 5374 5372 5370 5368 5366 5366 5365 5364 5363 5363
5388 5389 5389 5389 5389 5389 5389 5389 5388 5388 5387 5386 5384 5382 5380 5379 5378 5378 5376 5375 5374 5371 5369 5368 5367 5366 5365 5363 5361 5361 5359 5357 5356 5355 5354 5353 5352 5351
5378 5378 5378 5378 5378 5378 5377 5376 5376 5376 5375 5373 5372 5371 5369 5368 5367 5367 5366 5365 5364 5362 5359 5357 5355 5354 5353 5351 5350 5350 5349 5347 5345 5344 5343 5343 5343 5342
5368 5368 5368 5367 5367 5366 5366 5365 5364 5364 5363 5362 5361 5360 5359 5358 5357 5356 5355 5355 5353 5352 5349 5347 5345 5344 5343 5341 5338 5338 5338 5337 5335 5333 5332 5333 5334 5332
5358 5358 5357 5356 5356 5355 5354 5354 5352 5352 5351 5350 5350 5349 5348 5347 5346 5345 5344 5343 5342 5341 5339 5337 5335 5335 5337 5336 5331 5326 5326 5326 5325 5324 5323 5322 5323 5323
5346 5346 5346 5345 5345 5344 5344 5343 5342 5341 5340 5340 5339 5338 5338 5337 5336 5335 5334 5333 5332 5330 5329 5327 5325 5324 5324 5323 5320 5318 5315 5315 5315 5314 5313 5312 5312 5312
5333 5334 5334 5334 5334 5334 5333 5332 5331 5330 5330 5329 5329 5328 5327 5327 5326 5325 5324 5322 5321 5320 5319 5318 5314 5312 5310 5309 5310 5310 5308 5305 5303 5302 5302 5302 5304 5305
5322 5323 5323 5323 5323 5323 5322 5322 5321 5320 5319 5319 5318 5317 5317 5316 5316 5315 5314 5313 5311 5310 5309 5307 5304 5303 5302 5302 5302 5301 5299 5297 5295 5294 5293 5292 5293 5295
5311 5312 5312 5313 5313 5312 5312 5311 5310 5310 5309 5309 5308 5307 5307 5306 5305 5305 5304 5303 5302 5301 5299 5298 5296 5295 5294 5293 5292 5291 5290 5289 5289 5288 5287 5285 5284 5284